Meteo orario Aliwal North

Oggi, 25 Ottobre, Domenica

Tempo Temperatura Precipitazioni Vento Pressione Umidità
00:00 +24°C° 0 mm 2 m/s 652 mm Hg 29%
01:00 +24°C° 0 mm 3 m/s 652 mm Hg 31%
02:00 +23°C° 0 mm 4 m/s 652 mm Hg 32%
03:00 +21°C° 0 mm 3 m/s 651 mm Hg 40%
04:00 +20°C° 0 mm 3 m/s 651 mm Hg 47%
05:00 +19°C° 0 mm 3 m/s 651 mm Hg 54%
06:00 +21°C° 0 mm 3 m/s 652 mm Hg 48%
07:00 +23°C° 0 mm 4 m/s 652 mm Hg 42%
08:00 +27°C° 0 mm 4 m/s 653 mm Hg 35%
09:00 +29°C° 0 mm 4 m/s 653 mm Hg 30%
10:00 +32°C° 0 mm 4 m/s 653 mm Hg 25%
11:00 +35°C° 0 mm 4 m/s 653 mm Hg 19%
12:00 +35°C° 0 mm 4 m/s 653 mm Hg 18%
13:00 +36°C° 0 mm 4 m/s 653 mm Hg 16%
14:00 +37°C° 0 mm 5 m/s 652 mm Hg 14%
15:00 +36°C° 0.1 mm 4 m/s 652 mm Hg 16%
16:00 +35°C° 0.1 mm 4 m/s 652 mm Hg 18%
17:00 +34°C° 0.1 mm 3 m/s 651 mm Hg 20%
18:00 +30°C° 0.3 mm 4 m/s 652 mm Hg 29%
19:00 +27°C° 0.3 mm 5 m/s 652 mm Hg 38%
20:00 +23°C° 0.3 mm 6 m/s 652 mm Hg 47%
21:00 +22°C° 0.4 mm 6 m/s 652 mm Hg 54%
22:00 +21°C° 0.4 mm 6 m/s 652 mm Hg 61%
23:00 +21°C° 0.4 mm 6 m/s 652 mm Hg 68%

Domani, 26 Ottobre, Lunedi

Tempo Temperatura Precipitazioni Vento Pressione Umidità
00:00 +20°C° 0 mm 4 m/s 652 mm Hg 69%
01:00 +20°C° 0 mm 2 m/s 652 mm Hg 71%
02:00 +21°C° 0 mm 1 m/s 651 mm Hg 72%
03:00 +21°C° 0 mm 1 m/s 651 mm Hg 71%
04:00 +19°C° 0 mm 2 m/s 651 mm Hg 69%
05:00 +19°C° 0 mm 2 m/s 651 mm Hg 67%
06:00 +22°C° 0 mm 4 m/s 651 mm Hg 58%
07:00 +24°C° 0 mm 6 m/s 652 mm Hg 48%
08:00 +27°C° 0 mm 8 m/s 653 mm Hg 39%
09:00 +29°C° 0 mm 8 m/s 653 mm Hg 32%
10:00 +33°C° 0 mm 8 m/s 653 mm Hg 25%
11:00 +35°C° 0 mm 8 m/s 653 mm Hg 18%
12:00 +35°C° 0 mm 8 m/s 653 mm Hg 19%
13:00 +35°C° 0 mm 9 m/s 652 mm Hg 19%
14:00 +34°C° 0 mm 9 m/s 652 mm Hg 20%
15:00 +34°C° 0.1 mm 8 m/s 651 mm Hg 22%
16:00 +33°C° 0.1 mm 7 m/s 651 mm Hg 23%
17:00 +32°C° 0.1 mm 5 m/s 651 mm Hg 25%
18:00 +28°C° 0.1 mm 4 m/s 651 mm Hg 35%
19:00 +25°C° 0.1 mm 3 m/s 651 mm Hg 45%
20:00 +23°C° 0.1 mm 2 m/s 651 mm Hg 55%
21:00 +21°C° 0 mm 2 m/s 651 mm Hg 58%
22:00 +20°C° 0 mm 2 m/s 651 mm Hg 61%
23:00 +20°C° 0 mm 2 m/s 651 mm Hg 64%

Dopodomani, 27 Ottobre, Martedi

Tempo Temperatura Precipitazioni Vento Pressione Umidità
00:00 +19°C° 0 mm 2 m/s 651 mm Hg 65%
01:00 +19°C° 0 mm 2 m/s 650 mm Hg 66%
02:00 +18°C° 0 mm 2 m/s 650 mm Hg 67%
03:00 +18°C° 0 mm 2 m/s 650 mm Hg 68%
04:00 +18°C° 0 mm 2 m/s 650 mm Hg 70%
05:00 +17°C° 0 mm 2 m/s 650 mm Hg 72%
06:00 +19°C° 0 mm 4 m/s 650 mm Hg 64%
07:00 +22°C° 0 mm 6 m/s 651 mm Hg 55%
08:00 +24°C° 0 mm 9 m/s 652 mm Hg 47%
09:00 +27°C° 0 mm 9 m/s 652 mm Hg 41%
10:00 +29°C° 0 mm 9 m/s 652 mm Hg 34%
11:00 +33°C° 0 mm 10 m/s 652 mm Hg 28%
12:00 +33°C° 0 mm 9 m/s 651 mm Hg 26%
13:00 +33°C° 0 mm 9 m/s 651 mm Hg 23%
14:00 +34°C° 0 mm 8 m/s 650 mm Hg 21%
15:00 +30°C° 1.5 mm 7 m/s 650 mm Hg 30%
16:00 +27°C° 1.5 mm 7 m/s 649 mm Hg 39%
17:00 +23°C° 1.5 mm 6 m/s 649 mm Hg 48%
18:00 +22°C° 0.4 mm 6 m/s 649 mm Hg 53%
19:00 +21°C° 0.4 mm 7 m/s 650 mm Hg 58%
20:00 +20°C° 0.4 mm 7 m/s 650 mm Hg 63%
21:00 +19°C° 0 mm 6 m/s 650 mm Hg 65%
22:00 +19°C° 0 mm 5 m/s 649 mm Hg 68%
23:00 +18°C° 0 mm 3 m/s 649 mm Hg 71%

28 Ottobre, Mercoledi

Tempo Temperatura Precipitazioni Vento Pressione Umidità
00:00 +18°C° 0 mm 3 m/s 649 mm Hg 71%
01:00 +18°C° 0 mm 2 m/s 648 mm Hg 71%
02:00 +18°C° 0 mm 2 m/s 648 mm Hg 71%
03:00 +18°C° 0 mm 2 m/s 648 mm Hg 70%
04:00 +17°C° 0 mm 2 m/s 648 mm Hg 69%
05:00 +17°C° 0 mm 2 m/s 649 mm Hg 68%
06:00 +20°C° 0 mm 4 m/s 649 mm Hg 58%
07:00 +23°C° 0 mm 5 m/s 650 mm Hg 49%
08:00 +26°C° 0 mm 7 m/s 651 mm Hg 40%
09:00 +29°C° 0 mm 8 m/s 651 mm Hg 33%
10:00 +32°C° 0 mm 10 m/s 652 mm Hg 27%
11:00 +34°C° 0 mm 11 m/s 652 mm Hg 21%
12:00 +36°C° 0 mm 11 m/s 652 mm Hg 20%
13:00 +36°C° 0 mm 10 m/s 651 mm Hg 19%
14:00 +36°C° 0 mm 10 m/s 651 mm Hg 18%
15:00 +34°C° 0 mm 9 m/s 651 mm Hg 20%
16:00 +33°C° 0 mm 9 m/s 650 mm Hg 22%
17:00 +32°C° 0 mm 8 m/s 650 mm Hg 24%
18:00 +29°C° 0.1 mm 6 m/s 650 mm Hg 29%
19:00 +27°C° 0.1 mm 4 m/s 650 mm Hg 34%
20:00 +25°C° 0.1 mm 2 m/s 650 mm Hg 39%
21:00 +25°C° 0 mm 1 m/s 649 mm Hg 41%
22:00 +24°C° 0 mm 1 m/s 649 mm Hg 43%
23:00 +24°C° 0 mm 1 m/s 649 mm Hg 45%

29 Ottobre, Giovedi

Tempo Temperatura Precipitazioni Vento Pressione Umidità
00:00 +24°C° 0 mm 1 m/s 649 mm Hg 44%
01:00 +23°C° 0 mm 2 m/s 648 mm Hg 43%
02:00 +23°C° 0 mm 2 m/s 648 mm Hg 42%
03:00 +22°C° 0 mm 3 m/s 648 mm Hg 41%
04:00 +23°C° 0 mm 4 m/s 649 mm Hg 39%
05:00 +23°C° 0 mm 5 m/s 650 mm Hg 38%
06:00 +23°C° 0 mm 5 m/s 650 mm Hg 38%
07:00 +23°C° 0 mm 5 m/s 651 mm Hg 38%
08:00 +25°C° 0 mm 5 m/s 652 mm Hg 39%
09:00 +26°C° 0 mm 6 m/s 652 mm Hg 35%
10:00 +27°C° 0 mm 7 m/s 652 mm Hg 31%
11:00 +29°C° 0 mm 9 m/s 653 mm Hg 27%
12:00 +28°C° 0 mm 10 m/s 652 mm Hg 34%
13:00 +26°C° 0 mm 11 m/s 652 mm Hg 41%
14:00 +24°C° 0 mm 13 m/s 652 mm Hg 48%
15:00 +23°C° 0.7 mm 11 m/s 652 mm Hg 52%
16:00 +22°C° 0.7 mm 10 m/s 652 mm Hg 57%
17:00 +21°C° 0.7 mm 8 m/s 652 mm Hg 62%
18:00 +21°C° 0.1 mm 6 m/s 653 mm Hg 63%
19:00 +20°C° 0.1 mm 4 m/s 653 mm Hg 65%
20:00 +20°C° 0.1 mm 3 m/s 653 mm Hg 66%
21:00 +19°C° 0 mm 2 m/s 654 mm Hg 71%
22:00 +18°C° 0 mm 2 m/s 654 mm Hg 76%
23:00 +18°C° 0 mm 2 m/s 654 mm Hg 80%

30 Ottobre, Venerdi

Tempo Temperatura Precipitazioni Vento Pressione Umidità
00:00 +17°C° 0 mm 2 m/s 653 mm Hg 82%
01:00 +17°C° 0 mm 2 m/s 653 mm Hg 83%
02:00 +16°C° 0 mm 1 m/s 653 mm Hg 85%
03:00 +16°C° 0 mm 2 m/s 653 mm Hg 86%
04:00 +16°C° 0 mm 2 m/s 653 mm Hg 87%
05:00 +15°C° 0 mm 2 m/s 653 mm Hg 88%
06:00 +17°C° 0 mm 2 m/s 654 mm Hg 79%
07:00 +19°C° 0 mm 2 m/s 655 mm Hg 71%
08:00 +21°C° 0 mm 2 m/s 655 mm Hg 62%
09:00 +24°C° 0 mm 3 m/s 655 mm Hg 52%
10:00 +27°C° 0 mm 4 m/s 656 mm Hg 42%
11:00 +30°C° 0 mm 5 m/s 656 mm Hg 33%
12:00 +32°C° 0 mm 6 m/s 656 mm Hg 28%
13:00 +34°C° 0 mm 8 m/s 655 mm Hg 23%
14:00 +35°C° 0 mm 9 m/s 655 mm Hg 18%
15:00 +35°C° 0 mm 8 m/s 655 mm Hg 17%
16:00 +34°C° 0 mm 8 m/s 655 mm Hg 17%
17:00 +34°C° 0 mm 7 m/s 655 mm Hg 16%
18:00 +30°C° 0.1 mm 6 m/s 655 mm Hg 25%
19:00 +27°C° 0.1 mm 6 m/s 655 mm Hg 33%
20:00 +23°C° 0.1 mm 5 m/s 655 mm Hg 42%
21:00 +23°C° 0 mm 6 m/s 655 mm Hg 47%
22:00 +22°C° 0 mm 6 m/s 655 mm Hg 52%
23:00 +21°C° 0 mm 7 m/s 655 mm Hg 57%
Mostrare altro

Abbiamo bisogno del tuo consenso

Meteoprog e i nostri fornitori di servizi possono memorizzare e accedere a dati personali come cookie, identificatori di dispositivi o altre tecnologie simili sul tuo dispositivo e possono elaborare tali dati per personalizzare i contenuti e gli annunci, nonché fornire funzionalità dei social media e analizzarne il traffico.

  • Archiviare e/o accedere alle informazioni sul tuo dispositivo

    Cookie, identificatori di dispositivi o altre informazioni possono essere memorizzati o resi accessibili sul tuo dispositivo per le finalità sopra indicate.

  • Annunci e contenuti personalizzati, misurazione di annunci e contenuti, approfondimenti sul pubblico e sviluppo di prodotti

    Gli annunci e i contenuti possono essere personalizzati in base a un profilo. È possibile aggiungere più dati per personalizzare meglio annunci e contenuti. È possibile misurare il rendimento degli annunci e dei contenuti. È possibile ricavare informazioni sul pubblico che ha visto gli annunci e i contenuti. Tali dati possono essere utilizzati per sviluppare o migliorare l'esperienza, i sistemi e il software dell'utente.

Cliccando su “Accetto”, acconsenti all'uso di cookie, identificatori di dispositivo, web beacon o altre tecnologie simili. Puoi modificare le impostazioni nel browser del tuo dispositivo.

Per determinati scopi, è possibile fare affidamento su interessi legali, piuttosto che sul consenso. Puoi approfondire questo argomento consultando la nostra Informativa sulla privacy e sui cookie.